Temp
77 76 76 75 76 75 76 75 76 75 75 76 76 75 73 71 67 67 71 69 77 78 77 76 77 76 76 77 77 76 77 76 76
77 76 75 75 75 75 75 76 75 75 74 76 75 73 71 67 66 67 68 70 78 77 77 77 77 76 76 77 76 76 76 76 76
76 75 74 75 75 76 75 75 75 75 75 75 74 72 70 68 66 66 67 73 77 77 77 76 77 76 76 77 76 75 75 75 75
74 75 74 75 75 75 74 74 74 74 75 74 72 71 69 65 66 68 66 73 77 77 76 76 76 75 76 76 75 75 75 75 75
70 72 72 74 74 74 74 74 74 74 73 72 71 69 68 65 65 65 66 74 77 77 76 76 76 75 76 75 74 74 74 75 75
67 68 68 71 73 73 74 74 74 72 71 70 69 68 64 63 64 64 69 74 77 77 76 75 76 75 75 75 74 74 74 75 75
66 65 67 69 71 71 72 73 72 70 67 69 68 65 65 64 63 63 70 73 77 77 76 75 75 74 75 75 75 74 74 74 74
64 64 65 65 65 66 68 68 67 66 66 66 66 65 64 64 62 66 69 73 76 77 77 75 75 74 74 75 74 74 74 73 72
63 64 63 63 64 65 64 64 65 65 66 66 66 65 64 64 63 65 67 70 75 77 77 75 75 74 74 75 74 73 72 73 72
62 64 64 63 63 63 63 63 63 64 64 64 65 65 64 64 62 63 64 67 71 74 76 76 75 74 75 75 74 73 72 73 72
62 62 62 63 63 64 64 64 64 64 64 63 64 64 64 64 64 65 65 65 68 71 74 76 76 75 75 75 74 73 72 72 72
56 56 56 57 60 63 63 63 64 64 65 63 64 65 64 63 64 64 65 66 65 68 73 75 75 75 75 75 75 74 72 72 72
53 53 53 55 57 59 60 62 62 62 62 63 63 63 64 65 65 64 64 64 65 67 68 71 73 74 74 75 75 74 72 71 72
49 49 50 52 54 54 55 56 59 61 61 61 61 61 61 62 64 63 64 64 64 65 67 67 68 70 72 74 76 75 72 71 71
45 47 47 50 50 50 50 51 54 57 60 61 61 60 61 61 61 62 64 63 64 64 64 66 66 65 70 72 74 75 73 71 70
43 44 46 46 47 47 49 49 50 53 57 57 59 60 60 60 61 62 62 62 63 64 64 64 64 66 66 69 71 72 73 72 71
42 41 42 44 44 45 46 45 48 52 52 53 54 54 57 59 61 61 61 62 63 63 63 63 64 65 65 65 67 70 71 71 70
41 41 41 41 43 42 44 43 44 45 50 48 50 51 51 54 57 60 61 61 61 62 63 62 62 62 64 64 64 63 67 71 72
38 39 39 40 41 40 42 44 43 44 43 45 49 49 50 51 51 57 58 60 60 60 61 61 61 62 62 62 61 61 64 68 72
36 38 38 38 39 39 40 40 40 42 42 42 42 44 44 46 47 49 53 56 58 59 58 53 53 59 61 61 61 60 62 68 70
MSLP
1015.26 1015.35 1015.35 1015.27 1015.20 1015.36 1015.32 1015.40 1015.50 1015.54 1015.70 1015.86 1016.13 1016.41 1016.68 1016.81 1017.12 1017.21 1017.23 1017.24 1017.30 1017.57 1017.77 1018.02 1018.23 1018.34 1018.44 1018.59 1018.74 1018.98 1019.05 1019.29 1019.53
1015.03 1015.22 1015.28 1015.29 1015.13 1015.35 1015.43 1015.47 1015.62 1015.77 1015.85 1015.97 1016.22 1016.52 1016.89 1017.11 1017.31 1017.41 1017.46 1017.44 1017.38 1017.72 1017.95 1018.11 1018.31 1018.45 1018.51 1018.77 1018.99 1019.07 1019.23 1019.59 1019.80
1014.73 1014.95 1015.18 1015.09 1015.11 1015.26 1015.40 1015.52 1015.62 1015.69 1015.90 1016.14 1016.38 1016.62 1016.94 1017.26 1017.52 1017.61 1017.68 1017.51 1017.50 1017.77 1018.02 1018.20 1018.30 1018.49 1018.67 1018.82 1019.03 1019.29 1019.41 1019.68 1020.06
1014.82 1014.68 1014.91 1014.89 1014.93 1015.15 1015.39 1015.42 1015.66 1015.86 1015.88 1016.22 1016.57 1016.74 1017.05 1017.26 1017.54 1017.67 1017.80 1017.72 1017.67 1017.90 1018.15 1018.33 1018.46 1018.50 1018.65 1018.89 1019.12 1019.38 1019.63 1019.84 1020.05
1014.90 1014.58 1014.71 1014.84 1014.94 1015.00 1015.14 1015.46 1015.62 1015.80 1015.97 1016.05 1016.46 1016.80 1017.05 1017.37 1017.47 1017.71 1017.79 1017.72 1017.67 1017.87 1018.19 1018.38 1018.47 1018.54 1018.59 1018.86 1019.13 1019.55 1019.66 1019.90 1020.00
1014.86 1014.76 1014.64 1014.72 1014.73 1014.84 1015.05 1015.18 1015.52 1015.70 1015.90 1016.06 1016.38 1016.77 1017.00 1017.37 1017.47 1017.68 1017.76 1017.73 1017.64 1017.76 1018.04 1018.30 1018.36 1018.68 1018.77 1018.84 1019.25 1019.58 1019.74 1019.85 1019.98
1014.89 1014.69 1014.61 1014.59 1014.43 1014.59 1014.94 1015.05 1015.24 1015.52 1015.87 1016.00 1016.25 1016.54 1016.90 1017.17 1017.30 1017.35 1017.55 1017.64 1017.57 1017.64 1017.90 1018.06 1018.18 1018.45 1018.62 1018.77 1019.26 1019.58 1019.79 1019.90 1020.31
1014.70 1014.54 1014.38 1014.40 1014.49 1014.47 1014.65 1014.90 1015.24 1015.46 1015.64 1015.73 1016.04 1016.21 1016.55 1016.85 1017.08 1017.09 1017.26 1017.41 1017.37 1017.44 1017.62 1017.82 1018.00 1018.17 1018.33 1018.29 1019.00 1019.46 1019.68 1019.92 1020.40
1014.66 1014.37 1014.67 1014.56 1014.22 1014.24 1014.55 1014.85 1014.91 1015.07 1015.27 1015.33 1015.64 1015.94 1016.20 1016.47 1016.69 1016.88 1016.89 1017.12 1017.12 1017.12 1017.23 1017.55 1017.77 1018.01 1018.17 1018.11 1018.56 1019.21 1019.60 1019.80 1019.99
1014.66 1014.36 1014.30 1014.24 1014.31 1014.55 1014.55 1014.71 1014.86 1014.96 1015.01 1015.09 1015.27 1015.62 1015.92 1016.01 1016.41 1016.58 1016.70 1016.77 1016.93 1016.99 1016.95 1017.21 1017.54 1017.70 1017.92 1018.00 1018.25 1018.75 1019.24 1019.55 1019.59
1014.92 1014.68 1014.70 1014.67 1014.54 1014.58 1014.51 1014.74 1014.84 1014.82 1014.90 1015.04 1014.99 1015.24 1015.55 1015.82 1016.06 1016.26 1016.49 1016.52 1016.69 1016.86 1016.75 1016.79 1016.93 1017.34 1017.51 1017.84 1018.08 1018.42 1018.81 1019.18 1019.37
1015.87 1015.71 1015.72 1015.69 1015.08 1014.64 1014.51 1014.57 1014.58 1014.68 1014.73 1014.86 1014.92 1014.85 1015.13 1015.40 1015.72 1015.90 1016.18 1016.23 1016.32 1016.50 1016.37 1016.31 1016.66 1016.76 1016.97 1017.25 1017.57 1017.92 1018.32 1018.66 1019.01
1016.79 1016.56 1016.44 1016.15 1015.66 1015.33 1015.06 1014.92 1014.69 1014.59 1014.60 1014.53 1014.59 1014.70 1014.76 1015.06 1015.44 1015.66 1015.73 1015.73 1015.73 1015.90 1015.84 1015.87 1016.09 1016.42 1016.62 1016.68 1016.84 1017.19 1017.72 1018.19 1018.49
1017.67 1017.51 1017.38 1016.73 1016.31 1016.11 1015.94 1015.54 1015.14 1014.63 1014.52 1014.59 1014.59 1014.46 1014.58 1014.43 1015.02 1015.06 1015.10 1015.12 1015.26 1015.37 1015.15 1015.28 1015.58 1015.72 1015.99 1016.07 1016.09 1016.38 1017.02 1017.58 1017.96
1018.66 1018.17 1018.17 1017.59 1017.03 1016.74 1016.38 1016.09 1015.56 1015.24 1014.83 1014.55 1014.34 1014.25 1014.29 1014.11 1014.21 1014.65 1014.68 1014.74 1014.88 1014.85 1014.83 1014.90 1015.10 1015.11 1015.26 1015.47 1015.57 1015.71 1016.22 1016.73 1017.25
1019.84 1019.62 1019.01 1018.38 1017.95 1017.79 1017.25 1016.61 1016.00 1015.32 1014.96 1014.71 1014.08 1013.91 1013.72 1013.71 1013.83 1013.52 1013.91 1014.12 1014.05 1014.13 1014.15 1014.52 1014.60 1014.61 1014.56 1014.65 1014.94 1015.16 1015.34 1015.59 1016.20
1020.33 1020.13 1019.81 1019.36 1018.83 1018.58 1018.02 1017.91 1016.91 1016.14 1015.69 1015.37 1014.82 1013.94 1013.47 1013.18 1012.94 1012.94 1013.32 1013.31 1013.28 1013.43 1013.56 1013.72 1013.99 1014.13 1014.14 1013.89 1014.13 1014.33 1014.54 1015.17 1013.49
1020.78 1020.46 1020.09 1019.84 1019.26 1019.15 1018.97 1018.66 1017.96 1017.09 1016.28 1016.29 1015.78 1014.80 1014.03 1013.38 1012.68 1012.62 1012.97 1012.69 1012.77 1012.87 1012.89 1012.96 1012.99 1013.54 1013.31 1013.33 1013.45 1013.63 1013.77 1013.98 1014.36
1021.41 1021.12 1020.82 1020.31 1019.90 1019.91 1019.59 1019.20 1018.76 1018.09 1017.42 1016.69 1016.28 1015.95 1015.62 1014.40 1013.48 1012.68 1012.57 1012.43 1012.39 1012.63 1012.58 1012.41 1012.45 1012.98 1012.77 1012.97 1013.19 1013.01 1013.27 1013.33 1013.50
1022.05 1021.65 1021.28 1020.99 1020.74 1020.40 1020.12 1019.75 1019.43 1019.01 1018.60 1018.00 1017.42 1016.62 1016.30 1015.83 1015.04 1013.82 1013.30 1012.88 1012.99 1012.80 1013.20 1013.79 1013.65 1012.67 1012.71 1012.45 1012.48 1012.74 1012.94 1012.67 1012.99
Wind_Speed
6 6 4 4 6 7 7 7 8 10 11 13 15 15 14 11 6 5 6 5 12 12 12 12 12 12 12 16 14 13 15 15 17
7 5 5 5 6 7 8 9 8 10 11 13 14 14 11 5 5 5 5 5 12 12 12 12 13 11 14 15 13 15 16 17 17
7 7 8 6 5 8 9 10 10 12 12 13 13 11 10 5 4 3 3 7 13 12 12 11 11 14 15 14 14 13 16 18 16
11 7 9 8 7 7 7 8 9 10 13 12 9 11 9 6 4 4 3 7 11 11 10 10 11 13 15 13 11 13 17 17 17
13 8 7 8 8 8 8 9 10 11 12 12 11 11 9 5 5 3 3 8 11 12 10 10 13 14 15 14 14 13 16 16 15
7 7 7 9 9 9 10 10 12 12 12 12 11 10 3 5 4 3 8 11 12 11 11 12 14 13 14 14 15 13 13 14 15
7 6 8 9 9 10 11 11 12 10 4 5 10 4 5 4 4 4 12 13 13 11 13 14 15 16 17 14 13 15 14 16 16
4 3 2 3 5 2 5 5 4 5 5 4 5 5 5 4 3 6 13 15 16 13 13 15 16 18 17 17 14 16 16 17 18
4 2 4 5 2 3 3 3 5 6 7 8 7 6 6 4 3 5 12 15 18 17 16 16 18 19 17 18 18 16 16 16 18
3 2 3 3 2 2 3 3 4 5 6 5 7 7 6 5 3 3 8 12 16 18 17 19 18 19 18 17 17 17 18 18 19
5 4 5 5 3 2 2 3 4 5 5 6 6 5 4 5 5 4 4 10 14 19 19 21 22 23 21 20 19 18 20 22 20
7 6 6 6 6 5 3 3 3 5 4 7 7 7 7 5 7 6 6 7 12 17 21 20 23 23 25 24 22 21 23 24 22
8 6 6 7 6 5 6 4 3 3 3 5 6 6 6 10 8 6 6 7 5 8 19 21 23 22 25 27 25 24 24 24 23
9 7 7 7 5 5 6 4 5 2 2 3 4 3 4 4 4 7 8 7 7 7 12 17 20 22 24 28 27 26 24 25 23
10 8 8 8 6 6 6 6 4 3 3 5 5 6 7 6 8 10 7 7 8 8 8 7 11 17 24 26 26 25 26 26 25
9 7 7 7 7 8 8 6 4 3 5 3 4 6 8 9 9 7 8 8 9 9 8 7 7 9 21 26 28 26 26 28 28
8 8 8 8 6 8 9 9 5 3 4 2 3 4 3 7 10 8 8 11 8 9 10 9 11 10 9 14 23 27 27 25 35
10 10 8 7 8 8 8 8 9 4 3 4 2 3 3 2 2 9 8 8 7 9 10 12 10 9 9 9 13 19 24 26 27
9 8 8 8 7 8 8 8 7 6 5 4 5 3 3 3 3 1 3 4 4 7 6 7 10 10 9 10 12 15 21 26 27
10 10 9 9 6 7 8 9 10 7 5 4 4 4 2 4 3 2 2 3 3 3 6 11 12 8 8 11 10 11 15 24 27
Wind_Direction
260 258 266 268 232 210 183 168 179 167 163 159 153 149 145 131 130 127 140 132 139 137 133 131 140 138 150 133 130 131 131 127 118
260 244 257 256 220 212 196 174 177 179 169 164 162 151 141 134 138 144 145 156 145 147 149 154 154 158 144 139 139 140 140 131 124
256 240 233 236 235 218 210 194 180 170 167 163 157 149 142 133 134 139 160 171 157 159 160 162 157 157 151 145 139 133 148 138 136
285 246 228 229 227 216 218 211 191 180 166 161 157 156 157 150 159 163 186 201 165 167 169 179 182 179 162 153 145 162 154 143 134
307 277 245 225 224 218 215 208 204 192 182 153 153 160 156 162 164 180 199 198 180 172 181 190 186 174 164 150 139 153 154 153 124
297 284 251 240 225 219 224 212 202 206 192 170 160 155 156 170 178 183 213 208 192 183 189 198 196 181 178 154 157 159 163 157 134
283 267 274 261 242 225 227 232 208 196 200 190 168 167 170 177 189 186 212 219 209 201 199 201 203 204 187 159 177 176 170 150 146
270 254 263 311 254 238 236 225 223 198 189 185 182 181 175 187 192 207 215 217 222 218 215 205 211 207 188 154 175 190 184 164 158
290 269 248 236 277 262 224 227 220 206 209 202 189 189 191 194 189 217 215 220 223 232 214 218 218 219 200 174 176 188 194 181 162
304 315 319 303 327 286 275 225 225 221 218 213 201 194 204 190 200 208 221 226 229 235 236 215 209 205 206 195 188 192 199 192 167
2 28 23 1 326 304 277 266 243 233 212 222 217 211 186 198 203 211 237 233 237 238 236 231 217 213 212 211 203 202 200 196 185
23 30 20 358 345 325 278 261 251 243 227 222 220 215 217 257 217 206 224 242 232 236 236 233 233 224 216 213 214 209 205 201 196
16 22 19 354 357 5 6 315 261 256 253 242 223 219 212 216 224 220 220 217 223 238 237 239 232 229 226 221 216 212 207 207 202
9 15 354 356 8 13 359 335 342 293 258 253 245 248 244 201 244 221 222 226 224 235 242 234 237 229 224 223 218 214 208 208 208
9 11 359 355 10 8 1 341 322 288 295 273 248 228 230 215 217 238 227 216 219 226 236 239 241 231 219 222 229 222 213 209 209
18 6 1 359 19 7 354 340 332 306 5 300 242 236 232 227 232 222 222 219 219 225 231 232 236 240 230 222 223 228 221 210 208
31 23 13 4 14 16 13 352 329 312 8 310 276 258 242 233 235 227 228 230 225 221 219 229 234 237 234 225 227 223 227 226 209
21 21 24 9 28 13 2 359 352 326 314 14 275 305 266 319 206 225 227 231 228 230 228 228 224 240 236 236 227 228 233 230 227
20 20 16 23 27 12 5 5 355 343 352 314 11 274 315 290 292 303 250 230 237 249 245 232 229 229 234 237 239 224 221 231 233
16 18 18 20 16 16 14 10 8 8 0 9 340 352 326 12 325 309 331 26 317 323 356 27 10 329 272 243 224 233 241 233 231